This is the latest recevied weather packets stored in our database for station/object KE8WAY. If no packets are shown the sender has not sent any weather packets the latest 10 day(s).
| Time | Temp. | Humidity | Pressure | Rain* | Wind** | Luminosity | Snow |
|---|---|---|---|---|---|---|---|
| 1777497542 | 10° C | 82% | 1009.9 hPa | 0 mm | - | 98 W/m² | - |
| 1777497239 | 10° C | 82% | 1009.9 hPa | 0 mm | - | 93 W/m² | - |
| 1777496936 | 10° C | 82% | 1009.7 hPa | 0 mm | - | 170 W/m² | - |
| 1777496633 | 10° C | 81% | 1009.9 hPa | 0 mm | - | 76 W/m² | - |
| 1777496329 | 10° C | 82% | 1009.8 hPa | 0 mm | - | 73 W/m² | - |
| 1777496024 | 10° C | 83% | 1009.7 hPa | 0 mm | - | 76 W/m² | - |
| 1777495721 | 10° C | 83% | 1010 hPa | 0 mm | - | 59 W/m² | - |
| 1777495417 | 10° C | 81% | 1009.8 hPa | 0 mm | - | 72 W/m² | - |
| 1777495114 | 10.56° C | 80% | 1010 hPa | 0 mm | - | 128 W/m² | - |
| 1777494811 | 10.56° C | 80% | 1009.8 hPa | 0 mm | - | 91 W/m² | - |
| 1777494508 | 10.56° C | 81% | 1009.9 hPa | 0 mm | - | 85 W/m² | - |
| 1777494206 | 10.56° C | 80% | 1009.9 hPa | 0 mm | - | 128 W/m² | - |
| 1777493902 | 10.56° C | 80% | 1010 hPa | 0 mm | - | 73 W/m² | - |
| 1777493601 | 10.56° C | 79% | 1010 hPa | 0 mm | - | 85 W/m² | - |
| 1777493298 | 10.56° C | 78% | 1010 hPa | 0 mm | - | 88 W/m² | - |
| 1777492994 | 10.56° C | 77% | 1009.9 hPa | 0 mm | - | 85 W/m² | - |
| 1777492691 | 10.56° C | 76% | 1009.9 hPa | 0 mm | - | 133 W/m² | - |
| 1777492391 | 10.56° C | 74% | 1009.9 hPa | 0 mm | - | 126 W/m² | - |
| 1777492089 | 11.11° C | 74% | 1009.6 hPa | 0 mm | - | 178 W/m² | - |
| 1777491785 | 11.11° C | 75% | 1009.7 hPa | 0 mm | - | 209 W/m² | - |
| 1777491481 | 11.11° C | 74% | 1009.7 hPa | 0 mm | - | 216 W/m² | - |
| 1777491179 | 11.11° C | 76% | 1009.7 hPa | 0 mm | - | 234 W/m² | - |
| 1777490874 | 11.11° C | 75% | 1009.6 hPa | 0 mm | - | 255 W/m² | - |
| 1777490570 | 11.11° C | 74% | 1009.8 hPa | 0 mm | - | 277 W/m² | - |
| 1777490267 | 11.11° C | 74% | 1009.7 hPa | 0 mm | - | 337 W/m² | - |
* Rain latest hour (hover to see other rain measurements)
** Current wind speed in m/s (hover to see current wind gust speed)